Terminal Aerodrome Forecast
Issued by NWS

Home | Current Version | Previous Version | Text Only | Print | Product List | Glossary On
Versions: 1 2 3 4 5 6 7 8 9 10 11 12 13 14 15 16 17 18 19 20 21 22 23 24 25 26 27 28 29 30 31 32 33 34 35 36
000
FTUS41 KBOX 110540 AAA
TAFBED
TAF AMD
KBED 110540Z 1106/1206 00000KT P6SM FEW250
     FM120300 00000KT 3SM -SN OVC035
     FM120500 00000KT 2SM -SN OVC030=

USA.gov is the U.S. government's official web portal to all federal, state and local government web resources and services.